IS0GQX-3 Weather Reports


Display with metric or nautical units.
time (UTC)temp
F
wind
direction
speed
MPH
gust
MPH
rain 1hr
in
rain 24hr
in
rain mn
in
humidity
%
barometer
mb
20260902161946 111 0.0 0.0 0.00 0.00 2.80 1018.3
20260902155946 113 0.0 0.0 0.00 0.00 2.80 1018.3
20260902153945 111 0.0 0.0 0.00 0.00 2.80 1018.4
20260902151945 111 0.0 0.0 0.00 0.00 2.80 1018.6
20260902145945 111 0.0 0.0 0.00 0.00 2.80 1018.7
20260902143944 111 0.0 0.0 0.00 0.00 2.80 1018.9
20260902141944 111 0.0 0.0 0.00 0.00 2.80 1019.0
20260902135944 111 0.0 0.0 0.00 0.00 2.80 1018.9
20260902134716 113 0.0 0.0 0.00 0.00 0.00 1019.0
20260902132715 113 0.0 0.0 0.00 0.00 0.00 1019.0
20260902130715 113 0.0 0.0 0.00 0.00 0.00 1019.2
20260902124715 112 0.0 0.0 0.00 0.00 0.00 1019.3
20260902122714 113 0.0 0.0 0.00 0.00 0.00 1018.8
20260902120714 116 0.0 0.0 0.00 0.00 0.00 1019.2
20260902114713 115 0.0 0.0 0.00 0.00 0.00 1019.5
20260902112713 115 0.0 0.0 0.00 0.00 0.00 1019.7
20260902110713 112 0.0 0.0 0.00 0.00 0.00 1019.3
20260902104712 113 0.0 0.0 0.00 0.00 0.00 1020.1
20260902102712 112 0.0 0.0 0.00 0.00 0.00 1020.2
20260902100712 111 0.0 0.0 0.00 0.00 0.00 1019.9
20260902094712 111 0.0 0.0 0.00 0.00 0.00 1020.4
20260902092710 109 0.0 0.0 0.00 0.00 0.00 1020.4
20260902090710 109 0.0 0.0 0.00 0.00 0.00 1020.3
20260902084710 108 0.0 0.0 0.00 0.00 0.00 1020.3
20260902082709 107 0.0 0.0 0.00 0.00 0.00 1020.1
20260902080709 106 0.0 0.0 0.00 0.00 0.00 1019.9
20260902074709 105 0.0 0.0 0.00 0.00 0.00 1019.9
20260902072708 106 0.0 0.0 0.00 0.00 0.00 1019.6
20260902070708 108 0.0 0.0 0.00 0.00 0.00 1019.6
20260902064708 101 0.0 0.0 0.00 0.00 0.00 1019.7
20260902062707 98 0.0 0.0 0.00 0.00 0.00 1019.5
20260902060707 98 0.0 0.0 0.00 0.00 0.00 1019.4
20260902054707 96 0.0 0.0 0.00 0.00 0.00 1019.3
20260902052706 96 0.0 0.0 0.00 0.00 0.00 1019.1
20260902050706 97 0.0 0.0 0.00 0.00 0.00 1018.7
20260902044706 97 0.0 0.0 0.00 0.00 0.00 1018.7
20260902042705 96 0.0 0.0 0.00 0.00 0.00 1018.9
20260902040705 94 0.0 0.0 0.00 0.00 0.00 1019.1
20260902034705 94 0.0 0.0 0.00 0.00 0.00 1018.9
20260902032705 95 0.0 0.0 0.00 0.00 0.00 1018.9
20260902030704 95 0.0 0.0 0.00 0.00 0.00 1018.8
20260902024704 94 0.0 0.0 0.00 0.00 0.00 1018.8
20260902022704 96 0.0 0.0 0.00 0.00 0.00 1018.8
20260902020703 94 0.0 0.0 0.00 0.00 0.00 1019.0
20260902014703 94 0.0 0.0 0.00 0.00 0.00 1018.9
20260902012703 95 0.0 0.0 0.00 0.00 0.00 1018.7
20260902010702 95 0.0 0.0 0.00 0.00 0.00 1018.7
20260902004701 95 0.0 0.0 0.00 0.00 0.00 1018.8
20260902002701 95 0.0 0.0 0.00 0.00 0.00 1018.6
20260902000701 95 0.0 0.0 0.00 0.00 0.00 1018.9
20260901234700 95 0.0 0.0 0.00 0.00 0.00 1019.1
20260901232700 95 0.0 0.0 0.00 0.00 0.00 1019.2
20260901230700 96 0.0 0.0 0.00 0.00 0.00 1019.3
20260901224659 96 0.0 0.0 0.00 0.00 0.00 1019.5
20260901222659 97 0.0 0.0 0.00 0.00 0.00 1019.4
20260901220659 97 0.0 0.0 0.00 0.00 0.00 1019.3
20260901214658 99 0.0 0.0 0.00 0.00 0.00 1019.2
20260901212658 98 0.0 0.0 0.00 0.00 0.00 1019.6
20260901210659 98 0.0 0.0 0.00 0.00 0.00 1019.8
20260901204658 98 0.0 0.0 0.00 0.00 0.00 1020.0
20260901202657 98 0.0 0.0 0.00 0.00 0.00 1019.9
20260901200657 98 0.0 0.0 0.00 0.00 0.00 1019.9
20260901194656 98 0.0 0.0 0.00 0.00 0.00 1019.9
20260901192656 98 0.0 0.0 0.00 0.00 0.00 1019.7
20260901190656 98 0.0 0.0 0.00 0.00 0.00 1019.5
20260901184655 99 0.0 0.0 0.00 0.00 0.00 1019.2
20260901182655 96 0.0 0.0 0.00 0.00 0.00 1017.4
20260901180654 99 0.0 0.0 0.00 0.00 0.00 1018.7
20260901174654 100 0.0 0.0 0.00 0.00 0.00 1018.4
20260901172654 103 0.0 0.0 0.00 0.00 0.00 1018.2
20260901170653 104 0.0 0.0 0.00 0.00 0.00 1016.8
20260901164653 108 0.0 0.0 0.00 0.00 0.00 1018.3
20260901162653 110 0.0 0.0 0.00 0.00 0.00 1018.4